{"data":{"norad_id":57844,"intl_designator":"2023-141E","name":"STARLINK-30292","alt_names":[],"object_type":"PAYLOAD","status":"ACTIVE","operator":null,"country":"US","launch_date":"2023-09-12","launch_site_code":"AFWTR","launch_vehicle":null,"mission":null,"orbit_class":"UNKNOWN","rcs_meters":null,"size_class":null,"mass_kg":null,"dimensions":null,"purposes":["comms"],"wikipedia_slug":null,"has_3d_model":false,"image_url":null,"decayed_at":null,"tle_current":{"epoch":"2026-05-25T02:37:08.666976Z","epoch_age_seconds":59540,"freshness":"FRESH","line1":"1 57844U 23141E   26145.10912809 -.00001713  00000+0 -45775-4 0  9992","line2":"2 57844  53.1611 288.7800 0001107  99.1961 260.9165 15.30177938152038","mean_motion":15.30177938,"eccentricity":0.0001107,"inclination_deg":53.1611,"raan_deg":288.78,"arg_perigee_deg":99.1961,"mean_anomaly_deg":260.9165,"bstar":-4.5775e-5,"rev_number":15203,"period_min":94.106702510829,"perigee_km":474.52226999975,"apogee_km":476.03961673241,"semimajor_km":6853.4179433661,"source":"CELESTRAK","updated_at":"2026-05-25T13:38:18.414162Z"}}}